Weather History for Pompano Beach, FL

Change the Weather History Date:

Wednesday, January 16, 2013

  Actual Average Record
Temperature  
Mean Temperature 74 °F -  
Max Temperature 80 °F 75 °F 85 °F (1954)
Min Temperature 68 °F 55 °F 34 °F (1978)
Cooling Degree Days 9    
Growing Degree Days 24 (Base 50)    
Moisture  
Dew Point 67 °F    
Average Humidity 79    
Maximum Humidity 93    
Minimum Humidity 67    
Precipitation  
Precipitation 0.06 in - - ()
Sea Level Pressure  
Sea Level Pressure 30.07 in    
Wind  
Wind Speed 7 mph (SE)    
Max Wind Speed 15 mph    
Max Gust Speed 16 mph    
Visibility 10 miles    
Events Rain    
Averages and records for this station are not official NWS values.
T = Trace of Precipitation, MM = Missing Value Source: NWS Daily Summary

Daily Weather History Graph

Daily Weather History Graph

Search for Another Location

Airport:

Trip Planner

Search our weather history database for the weather conditions in past years. The results will help you decide how hot, cold, wet, or windy it might be!

Date:

Astronomy

Jan. 16, 2013 Rise Set
Actual Time 7:09 AM EST 5:51 PM EST
Civil Twilight 6:44 AM EST 6:16 PM EST
Nautical Twilight 6:16 AM EST 6:44 PM EST
Astronomical Twilight 5:48 AM EST 7:12 PM EST
Moon 10:20 AM EST (1/16) 11:02 PM EST (1/16)
Length of Visible Light 11h 31m
Length of Day
10h 41m
Waxing Crescent, 28% of the Moon is Illuminated
Jan 16
Waxing Crescent
Jan 18
First Quarter
Jan 26
Full
Feb 3
Last Quarter
Feb 10
New

Hourly Weather History & Observations

Time (EST) Temp. Heat Index Dew Point Humidity Pressure Visibility Wind Dir Wind Speed Gust Speed Precip Events Conditions
12:53 AM 72.0 °F - 64.0 °F 76% 30.06 in 10.0 mi ESE 6.9 mph - N/A   Clear
1:53 AM 72.0 °F - 61.0 °F 68% 30.06 in 10.0 mi SE 4.6 mph - N/A   Clear
3:00 AM 71.6 °F - 64.4 °F 78% 30.06 in 10.0 mi Calm Calm - N/A   Mostly Cloudy
3:09 AM 71.6 °F - 64.4 °F 78% 30.06 in 10.0 mi Calm Calm - N/A   Mostly Cloudy
3:53 AM 68.0 °F - 64.0 °F 87% 30.06 in 10.0 mi Calm Calm - N/A   Overcast
4:53 AM 72.0 °F - 68.0 °F 87% 30.06 in 5.0 mi Calm Calm - 0.03 in Rain Light Rain
5:17 AM 71.6 °F - 66.2 °F 83% 30.05 in 10.0 mi SE 10.4 mph - 0.00 in   Overcast
5:53 AM 73.0 °F - 66.9 °F 81% 30.06 in 10.0 mi SE 6.9 mph - 0.00 in   Overcast
6:53 AM 70.0 °F - 68.0 °F 93% 30.08 in 10.0 mi Calm Calm - N/A   Mostly Cloudy
7:53 AM 73.9 °F - 66.9 °F 79% 30.09 in 10.0 mi SE 6.9 mph - N/A   Scattered Clouds
8:53 AM 75.9 °F - 66.0 °F 71% 30.10 in 10.0 mi SE 13.8 mph - 0.01 in   Clear
9:53 AM 77.0 °F - 66.9 °F 71% 30.12 in 10.0 mi SE 13.8 mph - N/A   Clear
10:53 AM 77.0 °F - 66.9 °F 71% 30.11 in 10.0 mi SE 15.0 mph - N/A   Scattered Clouds
11:53 AM 80.1 °F 82.7 °F 68.0 °F 67% 30.08 in 10.0 mi SSE 11.5 mph - N/A   Mostly Cloudy
12:53 PM 78.1 °F - 68.0 °F 71% 30.06 in 10.0 mi SE 12.7 mph - N/A   Mostly Cloudy
1:53 PM 79.0 °F - 69.1 °F 72% 30.04 in 10.0 mi ESE 12.7 mph - N/A   Scattered Clouds
3:53 PM 78.1 °F - 68.0 °F 71% 30.04 in 10.0 mi SSE 13.8 mph - N/A   Scattered Clouds
4:53 PM 77.0 °F - 68.0 °F 74% 30.05 in 10.0 mi SE 10.4 mph - N/A   Partly Cloudy
5:53 PM 75.9 °F - 69.1 °F 79% 30.06 in 10.0 mi SE 9.2 mph - N/A   Scattered Clouds
6:53 PM 75.0 °F - 69.1 °F 82% 30.07 in 10.0 mi SE 9.2 mph - N/A   Scattered Clouds
7:53 PM 75.0 °F - 69.1 °F 82% 30.08 in 10.0 mi SE 8.1 mph - N/A   Partly Cloudy
8:53 PM 75.0 °F - 68.0 °F 79% 30.08 in 10.0 mi SE 8.1 mph - N/A   Partly Cloudy
9:53 PM 73.9 °F - 69.1 °F 85% 30.08 in 10.0 mi SE 6.9 mph - N/A   Partly Cloudy
10:53 PM 75.0 °F - 70.0 °F 84% 30.06 in 10.0 mi ESE 4.6 mph - 0.00 in Rain Light Rain
11:03 PM 75.2 °F - 69.8 °F 83% 30.06 in 10.0 mi SSE 12.7 mph 16.1 mph 0.00 in   Overcast
11:53 PM 71.1 °F - 69.1 °F 93% 30.06 in 5.0 mi SE 8.1 mph - 0.02 in Rain Light Rain